Notices

What's New in latest Release from April 7th, 2021:

- Updated Glossary, including Speed of Maximum Gust, and Total Hourly Precipitation

- Updated national and regional climate services offices contacts and prices information

- Addition of station inventory lists for 1981-2010, 1971-2000, and 1961-1990 Normals.

If you haven't already, please take our survey and provide feedback about our website: https://eccc.sondage-survey.ca/f/LanguageSelection.aspx?s=442ca660-fcf1-47c0-95a9-59707d6fd709

Hourly Data Report for September 10, 2018

SHEARWATER RCS
NOVA SCOTIA
Current Station Operator: ECCC - MSC

44°37'47.000" N
63°30'48.000" W
24.00 m
8205092
71264
AAW

Download Data

Hourly Data (September 2018)
Hourly Data Report for September 10, 2018
TIME
LST
Temp Definition
°C
Dew Point Definition
°C
Rel Hum Definition
%
Precip. Amount Definition
mm

Wind Dir Definition
10's deg

Wind Spd Definition
km/h
Visibility Definition
km
Stn Press Definition
kPa
Hmdx Definition


Wind Chill Definition


Weather Definition


00:00 11.7 6.9 72 0.0 4 12   102.64     LegendNANA
01:00 10.1 6.6 79 0.0 32 4   102.68     LegendNANA
02:00 9.6 7.0 84 0.0 36 7   102.68     LegendNANA
03:00 9.7 6.5 81 0.0 1 9   102.68     LegendNANA
04:00 9.5 6.2 80 0.0 1 8   102.73     LegendNANA
05:00 10.0 6.2 77 0.0 3 8   102.80     LegendNANA
06:00 9.8 4.9 72 0.0 2 9   102.86     LegendNANA
07:00 11.4 5.3 66 0.0 4 9   102.91     LegendNANA
08:00 13.4 5.9 61 0.0 4 12   102.93     LegendNANA
09:00 15.0 5.3 52 0.0 6 19   102.92     LegendNANA
10:00 16.2 5.2 48 0.0 7 12   102.96     LegendNANA
11:00 17.0 5.5 47 0.0 9 12   102.96     LegendNANA
12:00 17.5 5.4 45 0.0 11 13   102.97     LegendNANA
13:00 17.7 4.8 43 0.0 12 12   102.95     LegendNANA
14:00 18.3 6.5 46 0.0 14 11   102.93     LegendNANA
15:00 17.9 7.0 49 0.0 16 16   102.90     LegendNANA
16:00 17.4 7.3 52 0.0 15 15   102.91     LegendNANA
17:00 17.2 7.3 52 0.0 13 9   102.90     LegendNANA
18:00 16.2 8.3 59 0.0 12 6   102.91     LegendNANA
19:00 13.9 7.9 67 0.0 10 6   102.92     LegendNANA
20:00 13.4 7.9 69 0.0 8 7   102.94     LegendNANA
21:00 13.0 7.7 71 0.0 7 8   102.94     LegendNANA
22:00 12.7 8.3 74 0.0 5 8   102.96     LegendNANA
23:00 12.7 9.6 81 0.0 5 9   102.91     LegendNANA

Notes on Data Quality.

Legend

  • E = Estimated
  • M = Missing
  • NA = Not Available*
  • [empty] = Indicates an unobserved value
Date modified: